KC5GLG Weather Reports


time (UTC)temp
F
wind
direction
speed
knots
gust
knots
rain 1hr
in
rain 24hr
in
rain mn
in
humidity
%
barometer
mb
20260506110020 75 138 1.7 0.0 0.00 0.00 0.00 81 1006.6
20260506103041 75 169 0.9 0.0 0.00 0.00 0.00 81 1006.6
20260506094559 75 109 0.0 0.0 0.00 0.00 0.00 81 1006.5
20260506090045 75 184 0.9 0.0 0.00 0.00 0.00 81 1006.6
20260506084552 75 127 1.7 0.0 0.00 0.00 0.00 81 1006.3
20260506083102 75 120 0.9 0.0 0.00 0.00 0.00 81 1006.4
20260506071536 75 172 0.9 0.0 0.00 0.00 0.00 82 1006.8
20260506061550 76 82 0.9 0.0 0.00 0.00 0.00 82 1006.8
20260506044611 76 134 0.9 0.0 0.00 0.00 0.00 82 1006.8
20260506043022 76 127 0.9 0.0 0.00 0.00 0.00 82 1006.8
20260506034549 76 152 0.9 0.0 0.00 0.00 0.00 82 1006.5
20260506030022 76 178 2.6 0.0 0.00 0.00 0.00 81 1005.6
20260506024554 77 141 2.6 0.0 0.00 0.00 0.00 81 1005.5
20260506020031 77 152 2.6 0.0 0.00 0.00 0.00 81 1005.0
20260506013116 78 28 2.6 0.0 0.00 0.00 0.00 80 1004.5
20260506010105 79 150 2.6 0.0 0.00 0.00 0.00 79 1004.0
20260506004557 79 120 2.6 0.0 0.00 0.00 0.00 78 1004.0
20260506003046 80 101 2.6 0.0 0.00 0.00 0.00 77 1003.9
20260506001549 81 166 2.6 0.0 0.00 0.00 0.00 76 1003.9
20260506000129 82 244 2.6 0.0 0.00 0.00 0.00 75 1004.1
20260505234522 82 115 2.6 0.0 0.00 0.00 0.00 73 1004.0
20260505231606 84 150 2.6 0.0 0.00 0.00 0.00 72 1004.1
20260505230002 84 58 2.6 0.0 0.00 0.00 0.00 71 1004.2
20260505224556 84 212 3.5 0.0 0.00 0.00 0.00 70 1004.1
20260505223055 84 61 2.6 0.0 0.00 0.00 0.00 70 1004.2
20260505221544 85 186 3.5 0.0 0.00 0.00 0.00 69 1004.2
20260505214536 85 186 2.6 0.0 0.00 0.00 0.00 69 1004.0
20260505211502 86 182 2.6 0.0 0.00 0.00 0.00 68 1004.4
20260505210106 85 152 3.5 0.0 0.00 0.00 0.00 69 1004.6
20260505204646 85 198 4.3 0.0 0.00 0.00 0.00 69 1004.9
20260505203139 85 207 5.2 0.0 0.00 0.00 0.00 68 1005.1
20260505200119 85 217 3.5 0.0 0.00 0.00 0.00 71 1005.3
20260505193004 82 155 4.3 0.0 0.00 0.00 0.00 75 1005.8
20260505191557 81 112 2.6 0.0 0.00 0.00 0.00 76 1006.1
20260505184537 81 243 3.5 0.0 0.00 0.00 0.00 76 1006.2
20260505183043 80 172 3.5 0.0 0.00 0.00 0.00 78 1006.0
20260505180019 80 229 1.7 0.0 0.00 0.00 0.00 77 1006.0
20260505174503 80 160 2.6 0.0 0.00 0.00 0.00 77 1006.2
20260505171544 78 114 2.6 0.0 0.00 0.00 0.00 79 1006.7
20260505164534 77 202 2.6 0.0 0.00 0.00 0.00 79 1006.6
20260505161507 76 192 3.5 0.0 0.00 0.00 0.00 80 1006.9
20260505151536 75 134 2.6 0.0 0.00 0.00 0.00 81 1006.4
20260505140104 72 230 1.7 0.0 0.00 0.00 0.00 81 1006.6
20260505123113 70 208 1.7 0.0 0.00 0.00 0.00 81 1006.1
20260505121557 69 164 1.7 0.0 0.00 0.00 0.00 81 1006.1
20260505120150 69 134 1.7 0.0 0.00 0.00 0.00 82 1006.2
20260505113034 69 203 1.7 0.0 0.00 0.00 0.00 82 1005.9